DW9996 Weather Reports


Display with metric or nautical units.
time (UTC)temp
F
wind
direction
speed
MPH
gust
MPH
rain 1hr
in
rain 24hr
in
rain mn
in
humidity
%
barometer
mb
20260502163045 61 355 4.0 12.0 0.00 0.00 0.00 43 1016.0
20260502161557 61 15 7.0 12.0 0.00 0.00 0.00 43 1016.0
20260502151530 58 22 6.0 10.0 0.00 0.00 0.00 45 1015.8
20260502123006 45 9 3.0 9.0 0.00 0.00 0.00 60 1015.1
20260502121504 47 13 7.0 13.0 0.00 0.00 0.00 57 1015.0
20260502114601 48 40 5.0 12.0 0.00 0.00 0.00 55 1014.7
20260502113059 49 76 8.0 15.0 0.00 0.00 0.00 54 1014.3
20260502111557 50 67 8.0 16.0 0.00 0.00 0.00 52 1014.2
20260502110056 50 13 4.0 16.0 0.00 0.00 0.00 51 1014.1
20260502104555 49 37 6.0 13.0 0.00 0.00 0.00 52 1013.7
20260502103051 50 34 6.0 14.0 0.00 0.00 0.00 49 1013.6
20260502101556 50 46 7.0 12.0 0.00 0.00 0.00 49 1013.5
20260502071529 44 301 2.0 3.0 0.00 0.00 0.00 52 1012.2
20260502070026 44 304 2.0 4.0 0.00 0.00 0.00 51 1012.2
20260502064520 45 304 1.0 2.0 0.00 0.00 0.00 49 1012.2
20260502063019 46 302 1.0 4.0 0.00 0.00 0.00 48 1012.2
20260502061514 48 304 3.0 5.0 0.00 0.00 0.00 43 1012.2
20260502060010 51 317 2.0 4.0 0.00 0.00 0.00 39 1012.0
20260502054520 53 331 0.0 4.0 0.00 0.00 0.00 38 1012.0
20260502053010 51 310 3.0 4.0 0.00 0.00 0.00 39 1012.0
20260502051518 53 302 2.0 5.0 0.00 0.00 0.00 38 1011.9
20260502050027 54 306 1.0 5.0 0.00 0.00 0.00 36 1011.9
20260502044508 55 317 0.0 2.0 0.00 0.00 0.00 33 1011.7
20260502043008 55 90 1.0 3.0 0.00 0.00 0.00 36 1011.6
20260502041508 56 310 1.0 2.0 0.00 0.00 0.00 35 1011.7
20260502040007 55 310 3.0 4.0 0.00 0.00 0.00 37 1011.8
20260502034511 60 303 1.0 4.0 0.00 0.00 0.00 31 1011.7
20260502033015 61 101 1.0 6.0 0.00 0.00 0.00 28 1011.4
20260502031506 61 33 0.0 2.0 0.00 0.00 0.00 32 1011.2
20260502030015 64 33 1.0 2.0 0.00 0.00 0.00 27 1011.1
20260502024505 65 33 1.0 2.0 0.00 0.00 0.00 25 1010.9
20260502023005 66 33 0.0 0.0 0.00 0.00 0.00 25 1010.8
20260502021504 69 33 0.0 0.0 0.00 0.00 0.00 22 1010.7
20260502020004 71 33 0.0 0.0 0.00 0.00 0.00 21 1010.8
20260502014503 72 33 1.0 3.0 0.00 0.00 0.00 20 1010.8
20260502013002 73 17 0.0 3.0 0.00 0.00 0.00 19 1010.9
20260502011601 74 284 2.0 3.0 0.00 0.00 0.00 19 1011.0
20260502010107 74 305 2.0 6.0 0.00 0.00 0.00 21 1011.0
20260502004607 74 312 3.0 7.0 0.00 0.00 0.00 18 1011.1
20260502003106 74 302 4.0 9.0 0.00 0.00 0.00 19 1011.3
20260502001557 74 329 3.0 8.0 0.00 0.00 0.00 19 1011.3
20260502000056 75 334 5.0 10.0 0.00 0.00 0.00 19 1011.4
20260501234555 75 273 5.0 10.0 0.00 0.00 0.00 20 1011.5
20260501233056 75 298 8.0 19.0 0.00 0.00 0.00 19 1011.5
20260501231554 75 286 5.0 13.0 0.00 0.00 0.00 19 1011.5
20260501230056 75 279 4.0 11.0 0.00 0.00 0.00 19 1011.6
20260501224553 75 188 3.0 9.0 0.00 0.00 0.00 19 1011.8
20260501223102 75 251 4.0 12.0 0.00 0.00 0.00 18 1012.2
20260501221549 75 244 2.0 7.0 0.00 0.00 0.00 20 1012.2
20260501220052 75 179 3.0 11.0 0.00 0.00 0.00 16 1012.4
20260501214546 74 287 6.0 12.0 0.00 0.00 0.00 18 1012.6
20260501213049 75 282 8.0 12.0 0.00 0.00 0.00 16 1012.8
20260501211542 73 227 2.0 8.0 0.00 0.00 0.00 18 1013.0
20260501210045 74 284 7.0 13.0 0.00 0.00 0.00 17 1013.2
20260501204539 74 281 3.0 12.0 0.00 0.00 0.00 18 1013.1
20260501203038 72 256 1.0 10.0 0.00 0.00 0.00 19 1013.2
20260501201536 73 214 10.0 15.0 0.00 0.00 0.00 18 1013.5
20260501200032 72 192 5.0 11.0 0.00 0.00 0.00 19 1013.7
20260501194536 71 279 1.0 12.0 0.00 0.00 0.00 18 1013.8
20260501193032 71 226 7.0 16.0 0.00 0.00 0.00 20 1013.9
20260501191531 71 256 7.0 13.0 0.00 0.00 0.00 23 1014.1
20260501190026 70 198 5.0 11.0 0.00 0.00 0.00 22 1014.2
20260501184523 71 220 6.0 15.0 0.00 0.00 0.00 22 1014.3
20260501183022 69 269 5.0 12.0 0.00 0.00 0.00 25 1014.5
20260501181518 70 229 7.0 13.0 0.00 0.00 0.00 24 1014.7
20260501180020 69 280 4.0 11.0 0.00 0.00 0.00 24 1015.0
20260501174519 69 265 5.0 14.0 0.00 0.00 0.00 26 1015.0
20260501173012 68 295 3.0 16.0 0.00 0.00 0.00 26 1015.1
20260501171512 67 214 8.0 14.0 0.00 0.00 0.00 27 1015.2
20260501170009 67 229 4.0 15.0 0.00 0.00 0.00 28 1015.3